Location: Alsip
(41.6689°N, 87.7387°W)
Time: 14:18:20
(UTC+00:00)

GP-B - Pass Details

Date: 14 July 2020
Orbit: 631 x 635 km, 89.8° (Epoch: 04 August)

Event Time Altitude Azimuth Distance (km) Brightness Sun altitude
Rises 04:13:30 0° 9° (N) 2,934 7.4 -22.3°
Reaches altitude 10° 04:15:52 10° 18° (NNE) 2,021 6.3 -22.5°
Enters shadow 04:19:50 39° 80° (E) 959 3.8 -22.8°
